Flag for USA Weather for the Past 2 Weeks in Warminster Township, Pennsylvania, USA

Now
52 °F

Cool.


Feels Like: 52 °F
Forecast: 51 / 56 °F
Wind: 3 mph from North

Location: Doylestown Airport

Current Time: May 3, 2016 at 12:43:24 PM

Latest Report: May 3, 2016 at 11:54 AM


Visibility: 8 mi

Pressure: 29.83 "Hg

Humidity: 100%

Dew Point: 52 °F

Location of Warminster TownshipLocation

Historic Weather in Warminster Township — Graph

°F

Warminster Township Temperature Yesterday

Maximum temperature yesterday: 59 °F (at 4:54 PM)
Minimum temperature yesterday: 44 °F (at 5:54 AM)
Average temperature yesterday: 50 °F

High & Low Weather Summary for the Past Weeks

 TemperatureHumidityPressure
High80 °F (Apr 26, 1:54 PM)100% (Apr 28, 2:54 AM)30.28 "Hg (Apr 28, 2:54 AM)
Low39 °F (Apr 21, 5:54 AM)12% (Apr 18, 3:54 PM)29.59 "Hg (Apr 26, 1:54 PM)
Average55 °F62%30.00 "Hg
* Reported Apr 18 10:54 AM — May 3 10:54 AM, Warminster Township, Weather by CustomWeather, © 2016

Note: Actual official high and low records may vary slightly from our data, if they occured in-between our weather recording intervals... More about our weather records

Advertising

Warminster Township Weather History for the Previous 24 Hours

Scroll right to see more
 ConditionsComfort  
Time TempWeatherWind HumidityBarometerVisibility
10:54 AM
Tue, May 3
52 °FFog.5 mph97%29.83 "Hg4 mi
9:54 AM52 °FFog.5 mph97%29.82 "Hg4 mi
8:54 AM52 °FMostly cloudy.5 mph97%29.83 "Hg10 mi
7:54 AM53 °FLight rain. Low clouds.3 mph96%29.82 "Hg10 mi
6:54 AM53 °FLow clouds.No wind96%29.83 "Hg10 mi
5:54 AM53 °FLight rain. Low clouds.No wind100%29.83 "Hg10 mi
4:54 AM53 °FLight rain. Mostly cloudy.3 mph100%29.84 "Hg8 mi
3:54 AM54 °FLight rain. Fog.No wind100%29.85 "Hg4 mi
2:54 AM54 °FLight rain. Low clouds.5 mph100%29.84 "Hg10 mi
1:54 AM54 °FLight rain. Fog.3 mph100%29.85 "Hg5 mi
12:54 AM54 °FLight rain. Fog.No wind100%29.89 "Hg5 mi
12:02 AM55 °FRain. Fog.5 mph100%29.92 "Hg4 mi
11:54 PM
Mon, May 2
54 °FThundershowers. Fog.3 mph100%29.94 "Hg4 mi
10:54 PM54 °FStrong thunderstorms. Fog.9 mph100%29.93 "Hg2 mi
9:54 PM54 °FPartly cloudy.No wind97%29.93 "Hg10 mi
8:54 PM54 °FSunny.No wind97%29.90 "Hg9 mi
7:54 PM57 °FSunny.No wind90%29.93 "Hg10 mi
6:54 PM59 °FPassing clouds.3 mph84%29.90 "Hg10 mi
5:54 PM59 °FOvercast.No wind84%29.90 "Hg10 mi
4:54 PM59 °FOvercast.No wind81%29.90 "Hg10 mi
3:54 PM57 °FOvercast.5 mph83%29.90 "Hg10 mi
2:54 PM54 °FLow clouds.No wind90%29.92 "Hg10 mi
2:04 PM52 °FLow clouds.3 mph97%29.92 "Hg10 mi
1:54 PM52 °FLow clouds.3 mph93%29.93 "Hg8 mi
12:54 PM49 °FFog.No wind100%29.95 "Hg4 mi
Weather by CustomWeather, © 2016

See weather overviewHow to use our weather pages